,,,PA_Meas_PMT16A,,PR_Meas_QMR101_102,,RH_Meas_QMH101,,SR_Meas_QMS101,,TA_Meas_QMH101,,GenWind,,GenWind,
date,time,status,PA,status,PR,status,RH,status,SR,status,TA,status,DirAvg,status,SpdAvg,
2009-03-07, 00:00:05,VALID,1005.07,VALID,0,VALID,87.427,VALID,0,VALID,25.5532,VALID,29,VALID,1.31328,
2009-03-07, 00:01:05,VALID,1005.07,VALID,0,VALID,87.4422,VALID,0,VALID,25.5921,VALID,30,VALID,1.5957,
2009-03-07, 00:02:05,VALID,1005.03,VALID,0,VALID,87.4804,VALID,0,VALID,25.5727,VALID,14,VALID,0.828125,
2009-03-07, 00:03:05,VALID,1005.09,VALID,0,VALID,87.5261,VALID,0,VALID,25.5941,VALID,28,VALID,1.46641,
2009-03-07, 00:04:05,VALID,1005.02,VALID,0,VALID,87.6635,VALID,0,VALID,25.5123,VALID,31,VALID,1.6668,
2009-03-07, 00:05:05,VALID,1005.07,VALID,0,VALID,87.7245,VALID,0,VALID,25.4928,VALID,23,VALID,1.4168,
2009-03-07, 00:06:05,VALID,1005.01,VALID,0,VALID,87.8466,VALID,0,VALID,25.4948,VALID,51,VALID,1.47227,
2009-03-07, 00:07:05,VALID,1005.03,VALID,0,VALID,87.9915,VALID,0,VALID,25.4967,VALID,50,VALID,0.705469,
2009-03-07, 00:08:05,VALID,1005.01,VALID,0,VALID,88.1822,VALID,0,VALID,25.4558,VALID,47,VALID,1.03867,
2009-03-07, 00:09:05,VALID,1005.01,VALID,0,VALID,88.2051,VALID,0,VALID,25.4539,VALID,23,VALID,1.23945,
2009-03-07, 00:10:05,VALID,1004.99,VALID,0,VALID,88.1593,VALID,0,VALID,25.4753,VALID,28,VALID,1.41055,
2009-03-07, 00:11:05,VALID,1004.97,VALID,0,VALID,87.9457,VALID,0,VALID,25.5532,VALID,37,VALID,1.62617,
2009-03-07, 00:12:05,VALID,1004.97,VALID,0,VALID,87.7245,VALID,0,VALID,25.5727,VALID,44,VALID,1.95,
2009-03-07, 00:13:05,VALID,1004.95,VALID,0,VALID,87.6177,VALID,0,VALID,25.6116,VALID,61,VALID,1.56484,
2009-03-07, 00:14:05,VALID,1004.98,VALID,0,VALID,87.4575,VALID,0,VALID,25.6506,VALID,31,VALID,2.40078,
2009-03-07, 00:15:05,VALID,1004.97,VALID,0,VALID,87.1066,VALID,0,VALID,25.709,VALID,33,VALID,1.54297,
2009-03-07, 00:16:05,VALID,1004.99,VALID,0,VALID,87.076,VALID,0,VALID,25.7071,VALID,33,VALID,2.44492,
2009-03-07, 00:17:05,VALID,1005.01,VALID,0,VALID,87.0837,VALID,0.100563,VALID,25.709,VALID,30,VALID,1.63203,
2009-03-07, 00:18:05,VALID,1005,VALID,0,VALID,87.1828,VALID,0.100563,VALID,25.6486,VALID,29,VALID,1.80547,
2009-03-07, 00:19:05,VALID,1005,VALID,0,VALID,87.3507,VALID,0,VALID,25.6097,VALID,21,VALID,1.51758,
2009-03-07, 00:20:05,VALID,1005.02,VALID,0,VALID,87.6101,VALID,0,VALID,25.5707,VALID,47,VALID,1.50859,
2009-03-07, 00:21:05,VALID,1005.01,VALID,0,VALID,87.7779,VALID,0,VALID,25.5727,VALID,23,VALID,0.995313,
2009-03-07, 00:22:05,VALID,1005.01,VALID,0,VALID,87.8694,VALID,0,VALID,25.5532,VALID,22,VALID,1.35625,
2009-03-07, 00:23:05,VALID,1005,VALID,0,VALID,88.0754,VALID,0,VALID,25.5337,VALID,23,VALID,1.25156,
2009-03-07, 00:24:05,VALID,1005.03,VALID,0,VALID,88.1059,VALID,0,VALID,25.5142,VALID,359,VALID,1.10586,
2009-03-07, 00:25:05,VALID,1005.01,VALID,0,VALID,88.1441,VALID,0,VALID,25.5337,VALID,22,VALID,1.35977,
2009-03-07, 00:26:05,VALID,1005.01,VALID,0,VALID,88.0068,VALID,0,VALID,25.5532,VALID,29,VALID,1.23281,
2009-03-07, 00:27:05,VALID,1005,VALID,0,VALID,87.9686,VALID,0,VALID,25.5727,VALID,45,VALID,1.13867,
2009-03-07, 00:28:05,VALID,1005.02,VALID,0,VALID,87.9686,VALID,0,VALID,25.5727,VALID,22,VALID,0.803906,
2009-03-07, 00:29:05,VALID,1005.01,VALID,0,VALID,87.9915,VALID,0.100563,VALID,25.5318,VALID,21,VALID,1.60312,
2009-03-07, 00:30:05,VALID,1004.99,VALID,0,VALID,88.0602,VALID,0,VALID,25.5532,VALID,36,VALID,1.75,
2009-03-07, 00:31:05,VALID,1004.96,VALID,0,VALID,87.8847,VALID,0,VALID,25.5707,VALID,26,VALID,0.972266,
2009-03-07, 00:32:05,VALID,1004.99,VALID,0,VALID,87.8847,VALID,0,VALID,25.5513,VALID,30,VALID,2.04258,
2009-03-07, 00:33:05,VALID,1004.95,VALID,0,VALID,87.8618,VALID,0,VALID,25.5727,VALID,53,VALID,0.749219,
2009-03-07, 00:34:05,VALID,1004.94,VALID,0,VALID,87.8008,VALID,0,VALID,25.5707,VALID,10,VALID,1.28008,
2009-03-07, 00:35:05,VALID,1004.94,VALID,0,VALID,87.8466,VALID,0,VALID,25.5921,VALID,15,VALID,1.90586,
2009-03-07, 00:36:05,VALID,1004.93,VALID,0,VALID,87.7092,VALID,0,VALID,25.6116,VALID,25,VALID,0.940234,
2009-03-07, 00:37:05,VALID,1004.9,VALID,0,VALID,87.5414,VALID,0,VALID,25.6311,VALID,25,VALID,1.96523,
2009-03-07, 00:38:05,VALID,1004.92,VALID,0,VALID,87.549,VALID,0,VALID,25.6116,VALID,21,VALID,0.963281,
2009-03-07, 00:39:05,VALID,1004.9,VALID,0,VALID,87.6406,VALID,0,VALID,25.5727,VALID,33,VALID,1.55703,
2009-03-07, 00:40:05,VALID,1004.91,VALID,0,VALID,87.6635,VALID,0,VALID,25.5727,VALID,17,VALID,1.75039,
2009-03-07, 00:41:05,VALID,1004.87,VALID,0,VALID,87.6635,VALID,0,VALID,25.5727,VALID,31,VALID,0.973437,
2009-03-07, 00:42:05,VALID,1004.88,VALID,0,VALID,87.6787,VALID,0,VALID,25.5532,VALID,17,VALID,1.03672,
2009-03-07, 00:43:05,VALID,1004.89,VALID,0,VALID,87.7016,VALID,0,VALID,25.5532,VALID,33,VALID,1.25508,
2009-03-07, 00:44:05,VALID,1004.87,VALID,0,VALID,87.7398,VALID,0,VALID,25.5123,VALID,20,VALID,1.17656,
2009-03-07, 00:45:05,VALID,1004.85,VALID,0,VALID,87.8466,VALID,0,VALID,25.5337,VALID,22,VALID,1.50625,
2009-03-07, 00:46:05,VALID,1004.84,VALID,0,VALID,87.6787,VALID,0,VALID,25.5532,VALID,25,VALID,1.26758,
2009-03-07, 00:47:05,VALID,1004.78,VALID,0,VALID,87.7703,VALID,0,VALID,25.5337,VALID,5,VALID,1.08164,
2009-03-07, 00:48:05,VALID,1004.74,VALID,0,VALID,87.7855,VALID,0,VALID,25.5532,VALID,26,VALID,1.86523,
2009-03-07, 00:49:05,VALID,1004.74,VALID,0,VALID,87.6024,VALID,0,VALID,25.5707,VALID,26,VALID,1.03359,
2009-03-07, 00:50:05,VALID,1004.7,VALID,0,VALID,87.5948,VALID,0,VALID,25.5513,VALID,34,VALID,0.983203,
2009-03-07, 00:51:05,VALID,1004.71,VALID,0,VALID,87.6329,VALID,0,VALID,25.5727,VALID,11,VALID,0.958203,
2009-03-07, 00:52:05,VALID,1004.67,VALID,0,VALID,87.6558,VALID,0,VALID,25.5513,VALID,40,VALID,1.67148,
2009-03-07, 00:53:05,VALID,1004.71,VALID,0,VALID,87.6558,VALID,0,VALID,25.5727,VALID,18,VALID,1.34922,
2009-03-07, 00:54:05,VALID,1004.64,VALID,0,VALID,87.6177,VALID,0,VALID,25.5921,VALID,43,VALID,1.09336,
2009-03-07, 00:55:05,VALID,1004.66,VALID,0,VALID,87.5109,VALID,0,VALID,25.5921,VALID,25,VALID,1.20117,
2009-03-07, 00:56:05,VALID,1004.64,VALID,0,VALID,87.5414,VALID,0,VALID,25.5902,VALID,16,VALID,1.34883,
2009-03-07, 00:57:05,VALID,1004.62,VALID,0,VALID,87.488,VALID,0,VALID,25.6311,VALID,33,VALID,1.32344,
2009-03-07, 00:58:05,VALID,1004.62,VALID,0,VALID,87.3812,VALID,0,VALID,25.6506,VALID,25,VALID,1.22578,
2009-03-07, 00:59:05,VALID,1004.61,VALID,0,VALID,87.3965,VALID,0,VALID,25.5902,VALID,9,VALID,0.840625,
2009-03-07, 01:00:05,VALID,1004.6,VALID,0,VALID,87.5719,VALID,0,VALID,25.6136,VALID,33,VALID,1.54688,
2009-03-07, 01:01:05,VALID,1004.56,VALID,0,VALID,87.7016,VALID,0,VALID,25.5727,VALID,20,VALID,1.03516,
2009-03-07, 01:02:05,VALID,1004.57,VALID,0,VALID,87.8084,VALID,0,VALID,25.5532,VALID,15,VALID,2.1043,
2009-03-07, 01:03:05,VALID,1004.53,VALID,0,VALID,87.6024,VALID,0,VALID,25.6525,VALID,38,VALID,0.901172,
2009-03-07, 01:04:05,VALID,1004.5,VALID,0,VALID,87.5109,VALID,0,VALID,25.6311,VALID,19,VALID,1.425,
2009-03-07, 01:05:05,VALID,1004.49,VALID,0,VALID,87.6024,VALID,0,VALID,25.6116,VALID,22,VALID,1.13711,
2009-03-07, 01:06:05,VALID,1004.48,VALID,0,VALID,87.6253,VALID,0,VALID,25.6116,VALID,26,VALID,1.46602,
2009-03-07, 01:07:05,VALID,1004.44,VALID,0,VALID,87.5872,VALID,0,VALID,25.6116,VALID,22,VALID,1.28242,
2009-03-07, 01:08:05,VALID,1004.46,VALID,0,VALID,87.5567,VALID,0,VALID,25.6116,VALID,3,VALID,1.05547,
2009-03-07, 01:09:05,VALID,1004.44,VALID,0,VALID,87.6711,VALID,0,VALID,25.5727,VALID,19,VALID,0.732813,
2009-03-07, 01:10:05,VALID,1004.45,VALID,0,VALID,87.816,VALID,0,VALID,25.5727,VALID,25,VALID,1.65859,
2009-03-07, 01:11:05,VALID,1004.45,VALID,0,VALID,87.7779,VALID,0,VALID,25.5921,VALID,34,VALID,1.51367,
2009-03-07, 01:12:05,VALID,1004.42,VALID,0,VALID,87.7245,VALID,0,VALID,25.5727,VALID,23,VALID,0.910937,
2009-03-07, 01:13:05,VALID,1004.44,VALID,0,VALID,87.8694,VALID,0,VALID,25.5337,VALID,7,VALID,0.777344,
2009-03-07, 01:14:05,VALID,1004.44,VALID,0,VALID,88.0296,VALID,0,VALID,25.4948,VALID,18,VALID,0.742578,
2009-03-07, 01:15:05,VALID,1004.43,VALID,0,VALID,88.3043,VALID,0,VALID,25.4753,VALID,11,VALID,1.47578,
2009-03-07, 01:16:05,VALID,1004.41,VALID,0,VALID,88.3501,VALID,0,VALID,25.4558,VALID,17,VALID,0.835938,
2009-03-07, 01:17:05,VALID,1004.41,VALID,0,VALID,88.4492,VALID,0,VALID,25.4363,VALID,24,VALID,0.939453,
2009-03-07, 01:18:05,VALID,1004.41,VALID,0,VALID,88.5026,VALID,0,VALID,25.4558,VALID,46,VALID,0.878906,
2009-03-07, 01:19:05,VALID,1004.38,VALID,0,VALID,88.5866,VALID,0,VALID,25.4558,VALID,27,VALID,0.761719,
2009-03-07, 01:20:05,VALID,1004.37,VALID,0,VALID,88.6094,VALID,0,VALID,25.4169,VALID,42,VALID,0.907422,
2009-03-07, 01:21:05,VALID,1004.36,VALID,0,VALID,88.6781,VALID,0,VALID,25.4169,VALID,5,VALID,0.891797,
2009-03-07, 01:22:05,VALID,1004.38,VALID,0,VALID,88.7697,VALID,0,VALID,25.4169,VALID,12,VALID,0.983594,
2009-03-07, 01:23:05,VALID,1004.34,VALID,0,VALID,88.8078,VALID,0,VALID,25.4169,VALID,20,VALID,1.01992,
2009-03-07, 01:24:05,VALID,1004.33,VALID,0,VALID,88.8078,VALID,0,VALID,25.4169,VALID,24,VALID,1.19727,
2009-03-07, 01:25:05,VALID,1004.33,VALID,0,VALID,88.9451,VALID,0,VALID,25.3974,VALID,13,VALID,1.40391,
2009-03-07, 01:26:05,VALID,1004.33,VALID,0,VALID,88.8841,VALID,0,VALID,25.4344,VALID,25,VALID,1.31758,
2009-03-07, 01:27:05,VALID,1004.29,VALID,0,VALID,88.7162,VALID,0,VALID,25.4753,VALID,358,VALID,0.958594,
2009-03-07, 01:28:05,VALID,1004.33,VALID,0,VALID,88.6857,VALID,0,VALID,25.4363,VALID,7,VALID,0.526172,
2009-03-07, 01:29:05,VALID,1004.35,VALID,0,VALID,88.8002,VALID,0,VALID,25.3955,VALID,11,VALID,0.698828,
2009-03-07, 01:30:05,VALID,1004.34,VALID,0,VALID,88.9756,VALID,0,VALID,25.3974,VALID,18,VALID,1.19141,
2009-03-07, 01:31:05,VALID,1004.35,VALID,0,VALID,89.0367,VALID,0,VALID,25.376,VALID,8,VALID,0.775781,
2009-03-07, 01:32:05,VALID,1004.36,VALID,0,VALID,88.9527,VALID,0,VALID,25.4383,VALID,11,VALID,0.788281,
2009-03-07, 01:33:05,VALID,1004.36,VALID,0,VALID,88.9451,VALID,0,VALID,25.4363,VALID,27,VALID,1.29297,
2009-03-07, 01:34:05,VALID,1004.35,VALID,0,VALID,88.8841,VALID,0,VALID,25.4363,VALID,10,VALID,0.832031,
2009-03-07, 01:35:05,VALID,1004.36,VALID,0,VALID,88.8231,VALID,0,VALID,25.4558,VALID,24,VALID,0.70625,
2009-03-07, 01:36:05,VALID,1004.37,VALID,0,VALID,88.7544,VALID,0,VALID,25.4149,VALID,23,VALID,0.748438,
2009-03-07, 01:37:04,VALID,1004.38,VALID,0,VALID,88.7773,VALID,0,VALID,25.3974,VALID,24,VALID,0.666406,
2009-03-07, 01:38:04,VALID,1004.41,VALID,0,VALID,88.9833,VALID,0,VALID,25.3779,VALID,19,VALID,1.28242,
2009-03-07, 01:39:04,VALID,1004.41,VALID,0,VALID,89.0595,VALID,0,VALID,25.3584,VALID,358,VALID,0.903516,
2009-03-07, 01:40:04,VALID,1004.41,VALID,0,VALID,89.113,VALID,0,VALID,25.337,VALID,8,VALID,1.10078,
2009-03-07, 01:41:04,VALID,1004.43,VALID,0,VALID,89.0748,VALID,0,VALID,25.3584,VALID,19,VALID,0.871875,
2009-03-07, 01:42:04,VALID,1004.43,VALID,0,VALID,89.0748,VALID,0,VALID,25.3565,VALID,12,VALID,1.03437,
2009-03-07, 01:43:04,VALID,1004.4,VALID,0,VALID,89.0748,VALID,0,VALID,25.339,VALID,352,VALID,1.28945,
2009-03-07, 01:44:04,VALID,1004.4,VALID,0,VALID,89.1511,VALID,0,VALID,25.3584,VALID,343,VALID,1.48008,
2009-03-07, 01:45:04,VALID,1004.43,VALID,0,VALID,88.9985,VALID,0,VALID,25.3565,VALID,27,VALID,0.971094,
2009-03-07, 01:46:04,VALID,1004.41,VALID,0,VALID,88.9833,VALID,0,VALID,25.3779,VALID,32,VALID,1.92188,
2009-03-07, 01:47:04,VALID,1004.42,VALID,0,VALID,88.9451,VALID,0,VALID,25.376,VALID,7,VALID,1.18984,
2009-03-07, 01:48:04,VALID,1004.41,VALID,0,VALID,88.907,VALID,0,VALID,25.3779,VALID,1,VALID,0.730859,
2009-03-07, 01:49:04,VALID,1004.43,VALID,0,VALID,88.8841,VALID,0,VALID,25.337,VALID,21,VALID,1.00469,
2009-03-07, 01:50:04,VALID,1004.41,VALID,0,VALID,88.9909,VALID,0,VALID,25.3195,VALID,27,VALID,0.978125,
2009-03-07, 01:51:04,VALID,1004.4,VALID,0,VALID,89.0748,VALID,0,VALID,25.3195,VALID,342,VALID,0.962891,
2009-03-07, 01:52:04,VALID,1004.43,VALID,0,VALID,89.1587,VALID,0,VALID,25.2806,VALID,18,VALID,0.553516,
2009-03-07, 01:53:04,VALID,1004.42,VALID,0,VALID,89.2198,VALID,0,VALID,25.2611,VALID,15,VALID,0.394531,
2009-03-07, 01:54:04,VALID,1004.44,VALID,0,VALID,89.2732,VALID,0,VALID,25.2202,VALID,3,VALID,0.440625,
2009-03-07, 01:55:04,VALID,1004.39,VALID,0,VALID,89.3494,VALID,0,VALID,25.2221,VALID,2,VALID,0.391016,
2009-03-07, 01:56:04,VALID,1004.38,VALID,0,VALID,89.441,VALID,0,VALID,25.1832,VALID,351,VALID,0.416797,
2009-03-07, 01:57:04,VALID,1004.35,VALID,0,VALID,89.5325,VALID,0,VALID,25.1637,VALID,351,VALID,0.371484,
2009-03-07, 01:58:04,VALID,1004.33,VALID,0,VALID,89.647,VALID,0,VALID,25.1248,VALID,351,VALID,0.283594,
2009-03-07, 01:59:04,VALID,1004.34,VALID,0,VALID,89.769,VALID,0,VALID,25.0858,VALID,351,VALID,0.56875,
2009-03-07, 02:00:04,VALID,1004.31,VALID,0,VALID,89.9826,VALID,0,VALID,25.0469,VALID,354,VALID,0.421094,
2009-03-07, 02:01:04,VALID,1004.3,VALID,0,VALID,90.1047,VALID,0,VALID,25.0274,VALID,354,VALID,0.538281,
2009-03-07, 02:02:04,VALID,1004.26,VALID,0,VALID,90.1963,VALID,0,VALID,25.0079,VALID,336,VALID,0.4875,
2009-03-07, 02:03:04,VALID,1004.25,VALID,0,VALID,90.2802,VALID,0,VALID,24.9885,VALID,338,VALID,0.490625,
2009-03-07, 02:04:04,VALID,1004.23,VALID,0,VALID,90.3183,VALID,0,VALID,24.969,VALID,339,VALID,0.484766,
2009-03-07, 02:05:04,VALID,1004.21,VALID,0,VALID,90.4022,VALID,0,VALID,24.9495,VALID,352,VALID,0.386719,
2009-03-07, 02:06:04,VALID,1004.18,VALID,0,VALID,90.5243,VALID,0,VALID,24.93,VALID,3,VALID,0.385156,
2009-03-07, 02:07:04,VALID,1004.16,VALID,0,VALID,90.6387,VALID,0,VALID,24.9106,VALID,1,VALID,0.321484,
2009-03-07, 02:08:04,VALID,1004.14,VALID,0,VALID,90.7303,VALID,0,VALID,24.93,VALID,7,VALID,0.345703,
2009-03-07, 02:09:04,VALID,1004.13,VALID,0,VALID,90.7837,VALID,0,VALID,24.8911,VALID,4,VALID,0.549609,
2009-03-07, 02:10:04,VALID,1004.08,VALID,0,VALID,90.9286,VALID,0,VALID,24.9087,VALID,11,VALID,0.781641,
2009-03-07, 02:11:04,VALID,1004.08,VALID,0,VALID,90.8829,VALID,0.100563,VALID,24.9885,VALID,9,VALID,0.743359,
2009-03-07, 02:12:04,VALID,1004.04,VALID,0,VALID,90.7379,VALID,0,VALID,25.0255,VALID,3,VALID,1.13125,
2009-03-07, 02:13:04,VALID,1004.05,VALID,0,VALID,90.4862,VALID,0.100563,VALID,25.0663,VALID,351,VALID,1.06758,
2009-03-07, 02:14:04,VALID,1004.02,VALID,0,VALID,90.3259,VALID,0,VALID,25.1053,VALID,28,VALID,0.355078,
2009-03-07, 02:15:04,VALID,1004.03,VALID,0,VALID,90.1886,VALID,0.100563,VALID,25.1034,VALID,5,VALID,0.623828,
2009-03-07, 02:16:04,VALID,1004,VALID,0,VALID,90.0742,VALID,0,VALID,25.1034,VALID,11,VALID,0.696875,
2009-03-07, 02:17:04,VALID,1003.96,VALID,0,VALID,89.9903,VALID,0,VALID,25.1229,VALID,354,VALID,0.603906,
2009-03-07, 02:18:04,VALID,1003.96,VALID,0,VALID,89.9216,VALID,0,VALID,25.1442,VALID,21,VALID,0.596875,
2009-03-07, 02:19:04,VALID,1003.91,VALID,0,VALID,89.8606,VALID,0,VALID,25.1637,VALID,13,VALID,1.6582,
2009-03-07, 02:20:04,VALID,1003.9,VALID,0,VALID,89.647,VALID,0,VALID,25.1813,VALID,30,VALID,1.51914,
2009-03-07, 02:21:04,VALID,1003.86,VALID,0,VALID,89.3723,VALID,0,VALID,25.2611,VALID,26,VALID,0.905078,
2009-03-07, 02:22:04,VALID,1003.83,VALID,0,VALID,89.2121,VALID,0,VALID,25.2806,VALID,26,VALID,0.580469,
2009-03-07, 02:23:04,VALID,1003.81,VALID,0,VALID,89.029,VALID,0,VALID,25.2806,VALID,29,VALID,1.43242,
2009-03-07, 02:24:04,VALID,1003.76,VALID,0,VALID,88.8078,VALID,0,VALID,25.3195,VALID,67,VALID,0.455078,
2009-03-07, 02:25:04,VALID,1003.76,VALID,0,VALID,88.7162,VALID,0,VALID,25.3195,VALID,37,VALID,1.30898,
2009-03-07, 02:26:04,VALID,1003.76,VALID,0,VALID,88.7086,VALID,0,VALID,25.3195,VALID,358,VALID,0.542969,
2009-03-07, 02:27:04,VALID,1003.7,VALID,0,VALID,88.6552,VALID,0,VALID,25.2806,VALID,18,VALID,1.53125,
2009-03-07, 02:28:04,VALID,1003.69,VALID,0,VALID,88.5942,VALID,0,VALID,25.3,VALID,12,VALID,1.12344,
2009-03-07, 02:29:04,VALID,1003.68,VALID,0,VALID,88.4569,VALID,0,VALID,25.3,VALID,358,VALID,1.15352,
2009-03-07, 02:30:04,VALID,1003.69,VALID,0,VALID,88.3958,VALID,0,VALID,25.3214,VALID,347,VALID,1.02266,
2009-03-07, 02:31:04,VALID,1003.68,VALID,0,VALID,88.3958,VALID,0,VALID,25.2806,VALID,12,VALID,0.548828,
2009-03-07, 02:32:04,VALID,1003.66,VALID,0,VALID,88.3882,VALID,0,VALID,25.3,VALID,19,VALID,0.500391,
2009-03-07, 02:33:04,VALID,1003.64,VALID,0,VALID,88.3653,VALID,0,VALID,25.2592,VALID,29,VALID,1.07148,
2009-03-07, 02:34:04,VALID,1003.63,VALID,0,VALID,88.2738,VALID,0,VALID,25.3019,VALID,9,VALID,1.68633,
2009-03-07, 02:35:04,VALID,1003.6,VALID,0,VALID,88.167,VALID,0,VALID,25.2806,VALID,345,VALID,0.809375,
2009-03-07, 02:36:04,VALID,1003.62,VALID,0,VALID,88.022,VALID,0,VALID,25.2806,VALID,36,VALID,1.22461,
2009-03-07, 02:37:04,VALID,1003.63,VALID,0,VALID,88.022,VALID,0,VALID,25.3,VALID,25,VALID,0.823047,
2009-03-07, 02:38:04,VALID,1003.59,VALID,0,VALID,87.9991,VALID,0,VALID,25.2592,VALID,336,VALID,0.776563,
2009-03-07, 02:39:04,VALID,1003.61,VALID,0,VALID,87.9762,VALID,0,VALID,25.2611,VALID,14,VALID,1.26641,
2009-03-07, 02:40:04,VALID,1003.62,VALID,0,VALID,87.7779,VALID,0,VALID,25.2611,VALID,360,VALID,1.13828,
2009-03-07, 02:41:04,VALID,1003.57,VALID,0,VALID,87.7626,VALID,0,VALID,25.2806,VALID,11,VALID,0.564844,
2009-03-07, 02:42:04,VALID,1003.57,VALID,0,VALID,87.7092,VALID,0,VALID,25.2786,VALID,10,VALID,0.548828,
2009-03-07, 02:43:04,VALID,1003.58,VALID,0,VALID,87.7092,VALID,0,VALID,25.2592,VALID,8,VALID,0.763672,
2009-03-07, 02:44:04,VALID,1003.57,VALID,0,VALID,87.8237,VALID,0,VALID,25.2611,VALID,25,VALID,0.456641,
2009-03-07, 02:45:04,VALID,1003.57,VALID,0,VALID,87.6253,VALID,0,VALID,25.2416,VALID,23,VALID,1.59531,
2009-03-07, 02:46:04,VALID,1003.58,VALID,0,VALID,87.3659,VALID,0,VALID,25.2611,VALID,335,VALID,1.35898,
2009-03-07, 02:47:04,VALID,1003.58,VALID,0,VALID,87.3965,VALID,0,VALID,25.2786,VALID,12,VALID,0.735547,
2009-03-07, 02:48:04,VALID,1003.61,VALID,0,VALID,87.4575,VALID,0,VALID,25.2786,VALID,1,VALID,0.590625,
2009-03-07, 02:49:04,VALID,1003.62,VALID,0,VALID,87.5567,VALID,0.100563,VALID,25.2397,VALID,347,VALID,0.657031,
2009-03-07, 02:50:04,VALID,1003.6,VALID,0,VALID,87.5109,VALID,0,VALID,25.2611,VALID,9,VALID,1.13008,
2009-03-07, 02:51:04,VALID,1003.6,VALID,0,VALID,87.427,VALID,0,VALID,25.2611,VALID,2,VALID,0.738281,
2009-03-07, 02:52:04,VALID,1003.62,VALID,0,VALID,87.3659,VALID,0,VALID,25.2592,VALID,54,VALID,0.785156,
2009-03-07, 02:53:04,VALID,1003.6,VALID,0,VALID,87.1676,VALID,0,VALID,25.3,VALID,350,VALID,0.8,
2009-03-07, 02:54:04,VALID,1003.64,VALID,0,VALID,87.221,VALID,0,VALID,25.3195,VALID,358,VALID,0.700391,
2009-03-07, 02:55:04,VALID,1003.62,VALID,0,VALID,87.1218,VALID,0,VALID,25.339,VALID,357,VALID,0.832422,
2009-03-07, 02:56:04,VALID,1003.62,VALID,0,VALID,87.1447,VALID,0,VALID,25.339,VALID,32,VALID,1.42617,
2009-03-07, 02:57:04,VALID,1003.6,VALID,0,VALID,87.1676,VALID,0,VALID,25.3176,VALID,351,VALID,0.808984,
2009-03-07, 02:58:04,VALID,1003.6,VALID,0,VALID,87.2286,VALID,0,VALID,25.3176,VALID,21,VALID,0.733594,
2009-03-07, 02:59:04,VALID,1003.58,VALID,0,VALID,87.282,VALID,0,VALID,25.2981,VALID,10,VALID,1.03086,
2009-03-07, 03:00:04,VALID,1003.58,VALID,0,VALID,87.3659,VALID,0,VALID,25.3195,VALID,7,VALID,1.4082,
2009-03-07, 03:01:04,VALID,1003.57,VALID,0,VALID,87.4422,VALID,0.100563,VALID,25.2786,VALID,356,VALID,0.703516,
2009-03-07, 03:02:04,VALID,1003.6,VALID,0,VALID,87.5719,VALID,0,VALID,25.2806,VALID,354,VALID,0.753125,
2009-03-07, 03:03:04,VALID,1003.6,VALID,0,VALID,87.7245,VALID,0,VALID,25.2397,VALID,3,VALID,0.767187,
2009-03-07, 03:04:04,VALID,1003.58,VALID,0,VALID,87.6024,VALID,0,VALID,25.2221,VALID,356,VALID,0.684375,
2009-03-07, 03:05:04,VALID,1003.56,VALID,0,VALID,87.6177,VALID,0,VALID,25.2221,VALID,11,VALID,1.50469,
2009-03-07, 03:06:04,VALID,1003.56,VALID,0,VALID,87.5567,VALID,0,VALID,25.2611,VALID,9,VALID,1.08633,
2009-03-07, 03:07:04,VALID,1003.58,VALID,0,VALID,87.2668,VALID,0,VALID,25.3,VALID,358,VALID,1.26133,
2009-03-07, 03:08:04,VALID,1003.62,VALID,0,VALID,87.1447,VALID,0,VALID,25.3195,VALID,7,VALID,1.50703,
2009-03-07, 03:09:04,VALID,1003.62,VALID,0,VALID,86.8624,VALID,0,VALID,25.3584,VALID,360,VALID,1.60352,
2009-03-07, 03:10:04,VALID,1003.58,VALID,0,VALID,86.7785,VALID,0,VALID,25.3584,VALID,15,VALID,0.961328,
2009-03-07, 03:11:04,VALID,1003.58,VALID,0,VALID,86.9006,VALID,0,VALID,25.3565,VALID,358,VALID,0.620703,
2009-03-07, 03:12:04,VALID,1003.59,VALID,0,VALID,86.9082,VALID,0,VALID,25.3584,VALID,23,VALID,1.68594,
2009-03-07, 03:13:04,VALID,1003.6,VALID,0,VALID,86.954,VALID,0,VALID,25.3176,VALID,11,VALID,1.22812,
2009-03-07, 03:14:04,VALID,1003.57,VALID,0,VALID,86.9769,VALID,0,VALID,25.339,VALID,7,VALID,0.732813,
2009-03-07, 03:15:04,VALID,1003.62,VALID,0,VALID,87.1142,VALID,0,VALID,25.3195,VALID,356,VALID,1.03281,
2009-03-07, 03:16:04,VALID,1003.61,VALID,0,VALID,87.2286,VALID,0,VALID,25.2806,VALID,27,VALID,1.05664,
2009-03-07, 03:17:04,VALID,1003.63,VALID,0,VALID,87.221,VALID,0,VALID,25.2806,VALID,27,VALID,1.7625,
2009-03-07, 03:18:04,VALID,1003.63,VALID,0,VALID,87.1294,VALID,0,VALID,25.3195,VALID,42,VALID,0.803906,
2009-03-07, 03:19:04,VALID,1003.64,VALID,0,VALID,87.1523,VALID,0.100563,VALID,25.3,VALID,48,VALID,1.22812,
2009-03-07, 03:20:04,VALID,1003.69,VALID,0,VALID,87.2515,VALID,0,VALID,25.2592,VALID,16,VALID,0.804297,
2009-03-07, 03:21:04,VALID,1003.64,VALID,0,VALID,87.2286,VALID,0,VALID,25.2397,VALID,28,VALID,1.33086,
2009-03-07, 03:22:04,VALID,1003.65,VALID,0,VALID,87.3507,VALID,0,VALID,25.2806,VALID,33,VALID,0.83125,
2009-03-07, 03:23:04,VALID,1003.65,VALID,0,VALID,87.2668,VALID,0.100563,VALID,25.2397,VALID,36,VALID,1.40859,
2009-03-07, 03:24:04,VALID,1003.6,VALID,0,VALID,87.0913,VALID,0,VALID,25.2592,VALID,40,VALID,1.68398,
2009-03-07, 03:25:04,VALID,1003.58,VALID,0,VALID,86.9845,VALID,0,VALID,25.2806,VALID,39,VALID,1.9793,
2009-03-07, 03:26:04,VALID,1003.59,VALID,0,VALID,86.8472,VALID,0,VALID,25.2981,VALID,34,VALID,1.575,
2009-03-07, 03:27:04,VALID,1003.55,VALID,0,VALID,86.9387,VALID,0.100563,VALID,25.2981,VALID,37,VALID,1.44336,
2009-03-07, 03:28:04,VALID,1003.55,VALID,0,VALID,86.8319,VALID,0,VALID,25.2981,VALID,32,VALID,1.47578,
2009-03-07, 03:29:04,VALID,1003.57,VALID,0,VALID,86.9235,VALID,0,VALID,25.3195,VALID,29,VALID,1.31719,
2009-03-07, 03:30:04,VALID,1003.58,VALID,0,VALID,86.8853,VALID,0,VALID,25.3,VALID,23,VALID,1.51875,
2009-03-07, 03:31:04,VALID,1003.58,VALID,0,VALID,86.9616,VALID,0,VALID,25.2786,VALID,27,VALID,1.98281,
2009-03-07, 03:32:04,VALID,1003.6,VALID,0,VALID,86.9692,VALID,0.100563,VALID,25.2806,VALID,57,VALID,1.22227,
2009-03-07, 03:33:04,VALID,1003.61,VALID,0,VALID,86.9311,VALID,0,VALID,25.3,VALID,29,VALID,1.70195,
2009-03-07, 03:34:04,VALID,1003.62,VALID,0,VALID,86.9387,VALID,0.100563,VALID,25.3,VALID,32,VALID,0.925391,
2009-03-07, 03:35:04,VALID,1003.65,VALID,0,VALID,86.8167,VALID,0.100563,VALID,25.3176,VALID,33,VALID,1.27891,
2009-03-07, 03:36:04,VALID,1003.61,VALID,0,VALID,86.7556,VALID,0,VALID,25.3176,VALID,46,VALID,0.919922,
2009-03-07, 03:37:04,VALID,1003.62,VALID,0,VALID,86.7938,VALID,0,VALID,25.3195,VALID,25,VALID,1.9168,
2009-03-07, 03:38:04,VALID,1003.61,VALID,0,VALID,86.6565,VALID,0,VALID,25.339,VALID,53,VALID,1.03242,
2009-03-07, 03:39:04,VALID,1003.61,VALID,0,VALID,86.6793,VALID,0.100563,VALID,25.339,VALID,71,VALID,0.857813,
2009-03-07, 03:40:04,VALID,1003.6,VALID,0,VALID,86.5878,VALID,0,VALID,25.2981,VALID,44,VALID,1.14023,
2009-03-07, 03:41:04,VALID,1003.61,VALID,0,VALID,86.5573,VALID,0,VALID,25.3176,VALID,27,VALID,1.1543,
2009-03-07, 03:42:04,VALID,1003.61,VALID,0,VALID,86.5496,VALID,0,VALID,25.3195,VALID,34,VALID,1.12539,
2009-03-07, 03:43:04,VALID,1003.64,VALID,0,VALID,86.5496,VALID,0,VALID,25.3195,VALID,20,VALID,1.13555,
2009-03-07, 03:44:04,VALID,1003.63,VALID,0,VALID,86.6946,VALID,0,VALID,25.3,VALID,24,VALID,1.24414,
2009-03-07, 03:45:04,VALID,1003.65,VALID,0,VALID,86.7633,VALID,0,VALID,25.2611,VALID,27,VALID,1.21445,
2009-03-07, 03:46:04,VALID,1003.64,VALID,0,VALID,86.7633,VALID,0,VALID,25.2611,VALID,17,VALID,1.48359,
2009-03-07, 03:47:04,VALID,1003.66,VALID,0,VALID,86.8624,VALID,0,VALID,25.2611,VALID,75,VALID,1.31914,